User: anonymous   Login
Location: Unspecified
(0.0000°N, 0.0000°E)
Time: 19:11:41
(UTC+00:00)
Language:

Snapshot - Orbit

View from above orbital plane
View from above orbital plane
View from above satellite
View from above satellite

Ground track
Ground track

The orbit data is extracted from the following two-line orbital elements,

1 01314U 65027A   16041.81443896  .00000009  00000-0  74745-5 0  9995
2 01314  90.3019 271.0746 0031874  65.1391 342.6666 12.91745076143494
Epoch (UTC): 10 February 2016 19:32:47
Eccentricity: 0.0031874
inclination: 90.3019°
perigee height: 1270 km
apogee height: 1319 km
right ascension of ascending node: 271.0746°
argument of perigee: 65.1391°
revolutions per day: 12.91745076
mean anomaly at epoch: 342.6666°
orbit number at epoch: 14349

The dashed part of the orbit path shows where the satellite is in the earth's shadow,  

DLR